Flag for Canada Weather past 2 weeks in Edmonton, Alberta, Canada

Now
49 °F

Cool.


Feels Like: 47 °F
Forecast: 42 / 52 °F
Wind: 5 mph from North

Location: Edmonton Municipal

Current Time: Sep 4, 2015 at 3:22:00 PM

Latest Report: Sep 4, 2015 at 3:00 PM


Visibility: N/A

Pressure: 30.24 "Hg (27.81 "Hg at 692m altitude)

Humidity: 75%

Dew point: 41 °F

Location of EdmontonLocation

Historic Weather in Edmonton — Graph

°F

Edmonton temperature yesterday

Maximum temperature yesterday: 61 °F (at 6:00 PM)
Minimum temperature yesterday: 43 °F (at 6:00 AM)
Average temperature yesterday: 51 °F

Past Weeks' High & Low Weather Summary

 TemperatureHumidityPressure
High83 °F (Aug 28, 5:00 PM)95% (Sep 4, 7:00 AM)30.24 "Hg (Sep 4, 7:00 AM)
Low42 °F (Sep 4, 7:00 AM)20% (Aug 31, 3:00 PM)29.40 "Hg (Aug 29, 9:00 PM)
Average60 °F58%29.84 "Hg
* Reported Aug 20 2:00 PM — Sep 4 2:00 PM, Edmonton, Weather by CustomWeather, © 2015

Note: Actual official high and low records may vary slightly from our data, if they occured in-between our weather recording intervals... More about our weather records

Advertising

Edmonton weather history for previous 24 hours

 ConditionsComfort  
Time TempWeatherWind HumidityBarometerVisibility
2:00 PM
Fri, Sep 4
46 °FCool.2 mph85%30.24 "HgN/A
1:00 PM47 °FCool.2 mph84%30.24 "HgN/A
12:00 PM46 °FCool.5 mph87%30.23 "HgN/A
11:00 AM45 °FQuite cool.5 mph92%30.22 "HgN/A
10:00 AM44 °FQuite cool.3 mph92%30.22 "HgN/A
9:00 AM44 °FQuite cool.6 mph92%30.21 "HgN/A
8:00 AM44 °FQuite cool.3 mph91%30.20 "HgN/A
7:00 AM42 °FQuite cool.3 mph95%30.18 "HgN/A
6:00 AM44 °FQuite cool.7 mph81%30.15 "HgN/A
5:00 AM45 °FQuite cool.6 mph81%30.15 "HgN/A
4:00 AM45 °FCool.6 mph80%30.14 "HgN/A
3:00 AM45 °FCool.7 mph77%30.13 "HgN/A
2:00 AM45 °FCool.9 mph82%30.11 "HgN/A
1:00 AM46 °FCool.9 mph79%30.09 "HgN/A
12:00 AM47 °FCool.8 mph75%30.09 "HgN/A
11:00 PM
Thu, Sep 3
48 °FCool.7 mph71%30.08 "HgN/A
10:00 PM51 °FCool.8 mph64%30.06 "HgN/A
9:00 PM52 °FCool.8 mph59%30.06 "HgN/A
8:00 PM55 °FCool.6 mph50%30.03 "HgN/A
7:00 PM57 °FRefreshingly cool.10 mph43%30.01 "HgN/A
6:00 PM61 °FRefreshingly cool.6 mph36%29.99 "HgN/A
5:00 PM60 °FRefreshingly cool.5 mph39%29.99 "HgN/A
4:00 PM56 °FRefreshingly cool.7 mph47%29.99 "HgN/A
3:00 PM59 °FRefreshingly cool.7 mph46%29.99 "HgN/A
Weather by CustomWeather, © 2015

See weather overviewHow to use our weather pages